Beckley, WV

3:09 PM EST on November 11, 2019 (GMT -0500)
Raleigh County Memorial

Weather History for KBKW - October, 2019

Change the Weather History Date:

Monday, October 14, 2019

  Actual Average Record
Temperature  
Mean Temperature 54 °F 54 °F  
Max Temperature 68 °F 64 °F 82 °F (1954)
Min Temperature 43 °F 44 °F 21 °F (1934)
Degree Days  
Heating Degree Days 10 12  
Month to date heating degree days 137  
Since 1 July heating degree days 271  
Cooling Degree Days 0 0  
Month to date cooling degree days 2  
Year to date cooling degree days 552  
Growing Degree Days 4 (Base 50)    
Moisture  
Dew Point 34 °F    
Average Humidity 52    
Maximum Humidity 71    
Minimum Humidity 28    
Precipitation  
Precipitation 0.00 in 0.08 in 1.56 in (1944)
Month to date precipitation 1.14  
Year to date precipitation 33.81  
Snow  
Snow - 0.00 in T in (1977)
Month to date snowfall 0.0  
Since 1 September snowfall 0.0  
Snow Depth -    
Sea Level Pressure  
Sea Level Pressure 30.09 in    
Wind  
Wind Speed 5 mph ()    
Max Wind Speed 12 mph    
Max Gust Speed -    
Visibility 10.0 miles    
Events      
T = Trace of Precipitation, MM = Missing Value Source: Averaged Metar Reports

Daily Weather History Graph

Daily Weather History Graph

Search for Another Location

Airport or City:

Astronomy

Oct. 14, 2019 Rise Set
Actual Time 7:31 AM EDT 6:48 PM EDT
Civil Twilight 7:05 AM EDT 7:15 PM EDT
Nautical Twilight 6:34 AM EDT 7:45 PM EDT
Astronomical Twilight 6:04 AM EDT 8:15 PM EDT
Moon 7:38 PM EDT (10/14) 8:02 AM EDT (10/14)
Length of Visible Light 12h 09m
Length of Day
11h 17m
Waxing Gibbous, 99% of the Moon is Illuminated
Oct 14
Waxing Gibbous
Oct 21
Last Quarter
Oct 27
New
Nov 4
First Quarter
Nov 12
Full

Hourly Weather History & Observations

Time (EDT) Temp. Windchill Dew Point Humidity Pressure Visibility Wind Dir Wind Speed Gust Speed Precip Events Conditions
12:51 AM 45.0 °F 42.6 °F 33.1 °F 63% 30.02 in 10.0 mi SW 4.6 mph - N/A   Clear
1:51 AM 46.9 °F - 34.0 °F 61% 30.02 in 10.0 mi SSW 4.6 mph - N/A   Clear
2:51 AM 45.0 °F 43.5 °F 34.0 °F 65% 30.02 in 10.0 mi SSW 3.5 mph - N/A   Clear
3:51 AM 44.1 °F 42.5 °F 34.0 °F 68% 30.02 in 10.0 mi South 3.5 mph - N/A   Clear
4:51 AM 46.0 °F 42.5 °F 33.1 °F 61% 30.02 in 10.0 mi SSW 6.9 mph - N/A   Clear
5:51 AM 43.0 °F 41.3 °F 33.1 °F 68% 30.05 in 10.0 mi WSW 3.5 mph - N/A   Clear
6:51 AM 44.1 °F 40.8 °F 33.1 °F 65% 30.08 in 10.0 mi SW 5.8 mph - N/A   Clear
7:51 AM 45.0 °F 43.5 °F 34.0 °F 65% 30.11 in 10.0 mi SSW 3.5 mph - N/A   Clear
8:51 AM 48.9 °F - 36.0 °F 61% 30.12 in 10.0 mi SW 6.9 mph - N/A   Clear
9:51 AM 53.1 °F - 37.0 °F 55% 30.14 in 10.0 mi WSW 5.8 mph - N/A   Clear
10:51 AM 57.0 °F - 35.1 °F 44% 30.14 in 10.0 mi WNW 10.4 mph - N/A   Clear
11:51 AM 60.1 °F - 33.1 °F 36% 30.12 in 10.0 mi West 11.5 mph - N/A   Clear
12:51 PM 63.0 °F - 34.0 °F 34% 30.11 in 10.0 mi NW 8.1 mph - N/A   Clear
1:51 PM 64.9 °F - 34.0 °F 32% 30.08 in 10.0 mi SW 11.5 mph - N/A   Clear
2:51 PM 66.0 °F - 32.0 °F 28% 30.07 in 10.0 mi WSW 9.2 mph - N/A   Clear
4:51 PM 66.0 °F - 32.0 °F 28% 30.06 in 10.0 mi WSW 10.4 mph - N/A   Clear
5:51 PM 64.9 °F - 30.9 °F 28% 30.07 in 10.0 mi West 6.9 mph - N/A   Clear
6:51 PM 61.0 °F - 32.0 °F 34% 30.08 in 10.0 mi West 4.6 mph - N/A   Clear
7:51 PM 52.0 °F - 33.1 °F 49% 30.12 in 10.0 mi Calm Calm - N/A   Clear
8:51 PM 51.1 °F - 35.1 °F 54% 30.14 in 10.0 mi Calm Calm - N/A   Clear
9:51 PM 50.0 °F - 35.1 °F 57% 30.14 in 10.0 mi Calm Calm - N/A   Clear
10:51 PM 46.9 °F - 35.1 °F 63% 30.15 in 10.0 mi SSE 4.6 mph - N/A   Clear
11:51 PM 46.0 °F 44.8 °F 37.0 °F 71% 30.14 in 10.0 mi ESE 3.5 mph - N/A   Clear